Dewpoint
1 2 4 3 2 2 2 3 3 -1 -5 -6 -4 -6 -8 -9 -9 -10 -10 -10 -0 7 6 9 9 9 9 9 9 8 8 8 7 6 5 4 3 2 -1 -2 -3 -5 -7 -8
1 4 1 1 2 3 4 4 3 -3 -4 -7 -7 -7 -8 -9 -9 -11 -12 -13 -13 -11 -8 5 9 9 9 9 9 8 8 7 6 6 4 3 2 0 -1 -2 -4 -5 -6 -7
2 1 -0 1 2 3 3 1 -1 -2 -6 -8 -7 -5 -8 -10 -10 -11 -12 -11 -10 -10 -6 0 7 9 9 9 9 8 8 7 6 5 4 3 1 1 -1 -2 -4 -6 -7 -8
-0 -1 -2 -0 1 1 3 -2 -3 -6 -7 -4 -8 -3 -7 -9 -10 -10 -9 -3 2 2 0 -0 4 8 9 9 9 8 7 6 6 5 3 2 1 -0 -2 -3 -5 -7 -8 -8
-1 -3 -4 -4 -4 -4 -3 -5 -8 -7 -6 -6 -5 -5 -8 -10 -9 -8 -5 -0 4 3 -2 4 6 7 7 7 8 7 6 6 5 4 3 2 1 -1 -1 -2 -5 -6 -8 -9
-3 -5 -6 -6 -8 -6 -6 -7 -6 -4 -5 -2 -5 -5 -6 -6 -1 0 -1 2 5 5 5 5 6 6 6 7 7 6 6 6 6 5 4 2 0 1 1 -0 -4 -6 -8 -9
-4 -7 -9 -8 -8 -6 -7 -6 -2 -1 -1 -1 -5 -3 -5 -1 1 1 2 4 4 5 5 5 5 6 6 6 6 6 6 6 6 4 3 2 3 2 2 -0 -3 -3 -5 -8
-5 -3 -8 -8 -7 -5 -5 -4 -0 1 1 0 -4 -2 -5 1 -0 2 3 4 4 4 4 5 5 5 6 6 6 6 6 6 5 3 3 3 3 3 2 -0 -0 -1 -3 -7
-5 -3 -7 -8 -8 -8 -6 -4 -5 -2 -2 -0 -2 -4 -0 -0 -1 1 2 2 4 4 4 5 5 6 6 6 6 4 4 4 3 3 3 3 2 2 1 1 0 -0 -3 -6
-6 -3 -5 -7 -9 -8 -7 -7 -4 -1 1 2 -1 -2 -3 2 -1 0 2 2 2 2 3 3 3 2 1 2 2 3 1 1 3 4 3 3 3 2 1 1 0 -0 -3 -4
-8 -5 -5 -7 -7 -6 -5 -5 -5 -4 -1 1 -0 -0 -0 2 -1 -2 -0 1 0 1 0 -0 0 2 4 4 3 3 2 2 3 2 2 3 2 2 2 1 1 -1 -3 -4
-6 -5 -2 -5 -7 -8 -7 -5 -4 -0 -3 1 4 3 -1 -1 -2 -2 -2 -3 -3 -2 -3 -0 -3 -0 3 4 3 2 0 0 1 2 2 1 2 2 2 1 0 -1 -2 -3
-6 -3 -1 -4 -5 -6 -5 -6 -7 -5 -4 0 3 1 -3 -5 -7 -5 -4 -4 -3 -2 -4 -2 1 2 1 3 2 -1 -0 1 2 1 1 2 2 1 1 1 0 -0 -2 -4
-6 -4 -3 -1 -3 -4 -4 -5 -6 -5 -1 -2 -1 -2 -4 -3 -2 -5 -3 -2 -2 -2 -1 -3 -2 -1 2 2 0 1 1 2 1 1 1 1 1 1 -1 1 0 -1 -3 -4
-4 -1 -2 -3 -4 -4 -4 -3 -2 -2 -3 -0 -1 -2 -3 -4 -3 -2 -1 -0 -1 -3 -3 -3 -2 -2 -2 -1 -1 1 1 3 3 2 1 2 2 1 1 1 -0 -1 0 -3
-1 -0 0 1 -1 -1 -0 -1 -0 1 0 -0 -1 -1 -4 -6 0 1 1 -0 -1 -3 -4 -4 -4 -4 -4 -2 -1 -1 -0 2 3 3 2 2 1 1 1 0 -0 -1 -0 -1
2 2 3 3 1 3 3 1 -0 -2 -3 -3 -2 -3 -5 -1 1 1 0 -0 -2 -3 -3 -1 0 1 0 0 1 1 1 -0 2 3 3 2 2 1 1 0 -0 -0 -1 -3
1 2 2 3 2 4 -2 -5 -5 -3 -4 -3 -4 -4 -3 -2 -1 -1 -1 -2 -2 -3 -1 -0 1 2 0 0 1 1 2 3 3 3 3 2 2 2 1 1 -1 -1 -1 -3
-0 0 3 3 4 1 -4 -5 -5 -4 -4 -3 -1 1 1 0 -0 -1 -3 -2 -4 -3 -1 -1 -0 1 1 0 1 -0 2 3 3 3 3 2 2 1 1 0 -1 -2 -2 -4
-1 -0 2 3 3 1 -5 -1 -0 -0 3 1 1 1 -2 -2 -0 -1 -5 -4 -3 -2 -3 -4 -4 -1 1 0 -0 -1 2 2 3 3 3 2 2 1 1 0 0 -1 -3 -4
-0 1 2 2 2 0 1 2 1 3 1 1 1 1 0 -0 -1 -3 -3 -3 -3 -2 -3 -5 -2 -1 1 1 -0 -1 2 2 2 3 2 2 1 1 0 0 -0 -1 -2 -4
-3 -1 -1 0 1 1 -0 0 3 1 1 0 -0 0 1 -0 -1 -2 -4 -5 -4 -5 -3 -0 2 2 2 1 -0 -1 -1 1 2 2 1 1 1 1 0 -0 -0 -1 -3 -4
0 1 1 1 -1 -4 -2 -2 -4 -1 1 -0 -0 -1 -1 -3 -3 -6 -7 -6 -5 -4 -1 1 2 2 1 1 -0 -0 -0 1 2 1 1 0 -0 0 -0 -0 -1 -2 -3 -4
-4 -0 -1 -1 -3 -2 -3 -2 -2 -0 -1 0 -2 -3 -3 -3 -6 -7 -6 -6 -5 -2 -1 -1 0 2 2 1 0 -0 -0 -0 1 -0 -0 -0 -1 -0 -0 -1 -1 -2 -3 -4
-7 -6 -3 -3 -6 -7 -7 -4 -5 -6 -3 -4 -5 -4 -2 -2 -3 -6 -7 -6 -5 -1 -1 -2 1 1 1 2 0 -0 -0 -0 -0 -0 -1 -1 -1 -0 -1 -1 -1 -2 -2 -3
-6 -6 -4 -5 -10 -9 -9 -8 -9 -4 -6 -7 -8 -7 -5 -4 -4 -6 -6 -5 -2 -1 -2 -2 -1 1 1 1 -0 0 -0 -1 -1 0 -1 -1 -0 -1 -1 -1 -1 -2 -3 -3
Wind_Speed
2 1 7 11 8 5 6 4 7 6 7 3 6 5 11 18 15 18 21 21 29 38 40 37 38 41 41 41 42 41 38 36 33 32 32 29 27 22 18 16 15 14 15 14
3 8 9 5 5 8 9 9 12 7 5 4 7 9 12 9 10 20 18 28 31 28 27 37 43 47 49 49 49 45 42 37 35 33 32 30 26 21 17 17 16 15 14 13
6 6 4 6 8 6 6 7 5 7 3 5 6 10 4 7 12 20 20 24 31 32 26 32 44 50 51 53 53 50 44 37 33 31 30 27 25 21 21 18 15 14 13 12
5 7 5 2 6 4 4 5 6 5 2 4 3 14 6 7 13 8 22 21 25 26 26 31 40 48 51 51 54 50 41 34 30 29 29 27 27 24 19 14 13 13 13 12
7 4 2 3 4 1 7 3 5 2 3 3 2 4 1 3 7 8 10 18 22 24 17 23 27 32 35 43 50 45 35 31 28 27 26 24 23 17 16 15 14 14 13 12
8 3 3 7 5 6 5 3 2 3 2 7 7 9 4 1 4 6 9 14 13 9 3 14 21 25 29 34 38 35 30 27 24 25 25 24 21 20 18 16 16 14 14 14
5 5 5 4 3 3 3 4 3 4 1 7 2 2 8 1 4 4 6 7 8 6 8 13 17 21 24 26 29 26 18 17 25 23 26 20 20 20 15 16 16 16 14 13
4 6 3 3 2 3 3 6 5 6 3 4 3 5 4 4 3 5 10 8 6 3 3 10 15 20 23 23 17 17 23 25 24 21 19 20 23 21 19 17 15 15 10 11
3 5 2 2 2 1 2 3 2 2 1 3 3 4 3 3 5 8 11 12 10 6 3 7 10 12 14 17 16 12 14 16 15 21 20 22 24 22 20 18 18 16 13 14
3 6 5 2 1 2 3 2 3 2 3 6 4 5 4 2 2 4 4 7 11 7 8 6 8 13 18 22 23 19 10 9 17 23 20 23 24 23 19 21 21 20 16 16
2 3 4 3 2 5 3 1 0 2 4 5 11 8 3 2 5 4 1 2 11 11 10 15 20 23 23 23 23 23 19 17 21 18 20 28 29 25 21 22 21 22 18 16
3 3 5 8 6 7 6 6 6 4 9 3 2 7 4 4 1 6 9 15 13 25 36 23 20 20 27 28 28 28 26 27 27 26 24 24 29 25 24 24 25 23 22 18
4 3 6 9 3 5 3 3 3 2 2 3 1 6 4 16 21 26 13 12 30 21 26 27 23 26 29 32 32 31 33 34 31 28 27 31 28 25 25 24 28 25 23 18
3 4 6 12 12 5 17 19 12 3 4 12 16 19 16 12 14 20 14 19 17 7 12 21 27 32 31 32 36 39 38 38 34 36 35 31 30 29 21 26 27 25 23 20
6 13 10 17 17 17 20 19 5 10 15 12 17 20 20 14 8 8 10 12 9 9 7 10 10 13 18 27 32 37 39 46 46 42 41 36 33 33 28 28 29 28 25 21
4 10 4 21 14 15 19 17 8 12 15 15 18 21 20 14 6 8 7 7 6 8 9 10 12 17 22 23 25 26 30 39 47 45 39 36 36 34 31 29 28 28 25 27
5 3 2 19 6 9 12 12 13 12 14 11 13 15 8 7 8 12 11 10 9 10 13 12 15 18 22 18 20 22 23 28 38 40 39 38 35 36 36 33 30 27 28 22
8 8 5 11 6 10 6 3 5 10 16 9 12 12 8 9 9 7 11 12 10 10 13 13 15 18 14 14 16 17 13 17 25 33 34 37 36 38 38 34 30 28 27 24
17 11 6 7 5 5 12 6 3 4 20 4 5 1 3 6 6 13 13 13 9 11 12 15 16 18 16 15 16 15 15 15 20 26 34 35 32 39 39 35 29 27 25 26
13 13 9 3 3 4 4 1 12 3 10 3 3 4 3 6 1 7 9 8 9 12 16 21 21 18 16 13 16 12 11 10 13 17 22 24 30 36 37 35 30 29 28 29
2 3 12 10 8 6 8 15 13 5 4 2 6 14 13 3 7 14 8 10 12 15 20 23 21 19 16 12 12 11 11 11 10 14 18 22 25 29 31 31 26 28 30 29
4 3 4 4 6 10 13 10 5 10 10 13 16 24 21 26 30 20 13 13 13 16 20 16 13 14 13 10 9 6 7 8 11 12 14 17 18 22 26 28 28 27 26 25
4 3 2 2 4 6 11 11 23 24 22 22 16 21 21 16 18 15 13 13 14 14 15 11 12 9 8 9 8 5 3 8 12 13 14 14 14 18 22 26 25 26 25 26
4 4 4 1 5 10 18 23 31 29 24 20 19 15 23 19 19 18 15 14 15 12 12 12 18 11 9 12 9 6 5 7 12 12 13 15 17 21 24 24 24 24 25 26
6 3 4 10 12 18 23 19 18 24 17 23 27 29 28 25 24 18 16 15 15 11 10 10 8 7 8 11 9 7 7 8 13 15 15 18 19 24 24 23 22 24 23 23
8 9 8 15 22 16 22 26 33 27 35 32 35 31 28 23 19 18 15 14 12 11 8 8 8 7 7 7 6 6 8 7 10 19 19 20 23 26 26 26 24 24 22 20
Wind_Direction
277 203 217 215 200 229 261 263 261 261 267 297 260 268 285 295 299 282 276 262 248 248 251 238 229 223 220 213 208 205 201 203 208 208 210 213 217 216 217 220 220 219 223 226
356 243 229 222 221 224 244 255 270 270 254 203 253 250 248 257 253 266 287 298 294 284 258 241 231 223 220 214 208 204 205 206 209 216 217 218 214 210 214 218 218 216 220 222
206 248 16 199 264 230 242 222 233 238 308 300 312 280 222 263 263 274 291 300 297 292 276 237 225 223 218 214 207 203 202 205 210 214 213 209 205 207 208 208 209 210 215 217
236 273 290 258 236 199 256 222 234 252 322 277 32 293 194 259 283 312 330 337 327 315 289 251 229 214 212 209 205 201 200 204 210 213 211 214 213 209 212 210 206 206 210 216
248 292 316 326 252 243 241 255 260 279 274 18 293 287 50 305 309 318 310 338 337 332 308 233 203 200 198 197 197 194 197 204 203 216 220 221 222 213 207 200 207 208 207 211
241 264 237 215 242 215 246 226 22 62 119 270 220 198 296 311 268 288 319 343 4 20 177 188 190 195 194 194 192 193 202 204 210 213 224 224 211 208 207 210 206 201 209 211
330 270 278 209 246 341 132 98 301 304 217 238 173 183 246 347 5 323 313 19 38 67 138 166 183 188 189 191 196 200 205 217 218 218 214 215 227 226 237 229 210 211 215 219
226 311 220 20 145 211 248 170 181 251 225 250 321 260 265 90 352 34 64 68 73 91 173 192 194 194 190 186 186 226 221 214 215 220 225 226 226 228 242 241 228 230 224 222
289 255 323 132 172 105 322 236 187 270 262 311 210 290 345 65 10 32 61 76 87 93 137 172 176 179 193 215 217 239 240 241 245 232 229 226 223 228 234 242 235 238 229 228
315 297 246 293 185 10 175 221 344 360 269 245 266 266 224 269 19 354 34 87 88 98 136 156 224 239 246 235 245 240 234 235 236 236 240 237 236 233 238 234 233 237 228 234
317 159 278 360 195 197 339 159 319 230 191 241 270 268 182 179 223 215 202 330 333 276 272 261 244 236 220 219 224 226 224 224 224 219 236 241 236 232 236 236 237 238 233 239
334 273 264 217 199 191 203 213 186 204 263 238 169 261 314 250 278 273 268 267 298 291 285 274 255 236 227 222 223 225 225 227 227 233 233 226 230 235 238 242 237 235 233 232
13 344 327 307 36 13 318 3 84 16 237 249 268 270 286 310 301 285 274 272 288 292 294 278 262 250 241 231 228 234 238 236 232 232 235 234 233 232 235 241 235 233 232 228
164 209 202 262 270 278 283 276 279 209 238 268 260 274 276 263 265 273 270 229 259 276 283 262 257 254 245 245 241 240 239 236 238 229 232 234 238 237 243 239 236 231 232 234
168 260 250 264 273 276 270 272 251 244 252 252 269 269 270 267 255 253 211 201 209 221 259 300 299 283 269 261 261 254 246 236 234 231 233 232 233 234 236 230 225 227 239 228
192 261 266 277 276 268 272 275 269 265 264 259 254 261 264 267 209 191 205 213 235 279 292 300 304 290 282 280 277 270 260 248 239 237 233 231 235 230 231 225 227 229 232 229
200 210 207 269 277 297 269 246 250 259 263 258 269 265 265 227 210 208 211 220 247 277 294 290 310 309 300 275 278 274 265 255 243 234 233 231 230 227 224 224 224 226 228 221
223 222 230 269 243 238 274 236 246 242 260 264 255 265 237 235 229 209 224 235 261 301 302 292 311 320 308 308 301 293 278 258 246 237 232 233 229 228 223 222 222 222 224 220
212 224 247 252 229 280 290 267 237 285 286 301 235 211 299 296 289 273 253 245 291 317 322 316 319 321 317 308 302 301 289 263 242 233 229 233 231 225 223 217 214 219 226 213
220 220 223 226 257 259 242 341 352 18 278 295 266 229 218 161 213 256 283 257 286 304 310 312 312 299 308 312 310 298 288 271 246 241 237 240 236 231 225 222 230 225 221 216
153 199 216 235 250 269 355 336 320 260 289 283 291 293 297 254 240 266 279 276 286 300 306 317 304 277 283 298 302 299 286 276 273 251 245 238 239 237 229 227 236 230 225 220
215 198 214 220 240 255 2 351 310 332 273 285 281 281 272 276 277 271 255 270 287 309 320 318 307 293 270 281 290 296 278 261 252 246 243 241 239 234 227 229 233 231 226 221
253 176 319 269 250 247 232 226 289 280 273 289 291 299 294 293 250 240 260 278 287 306 332 335 320 312 283 271 271 275 312 238 235 237 233 233 234 231 231 236 233 230 226 223
259 158 215 323 259 253 278 270 275 272 278 270 283 272 290 274 264 266 266 278 279 297 304 300 310 328 266 264 249 257 277 247 225 229 220 220 224 232 235 235 233 232 230 226
222 267 249 260 280 280 280 281 272 304 286 292 294 287 280 287 273 258 265 271 273 273 294 315 286 334 356 261 251 264 285 273 228 220 227 225 235 238 238 238 239 236 238 241
224 243 248 259 271 268 271 281 293 295 295 297 296 296 284 283 270 256 264 249 249 254 290 312 297 304 293 265 277 293 299 281 239 223 225 228 233 233 238 239 237 241 240 244
Height
1486 1490 1492 1486 1486 1485 1487 1489 1491 1483 1472 1471 1469 1466 1460 1452 1450 1446 1444 1444 1444 1442 1443 1445 1448 1451 1453 1455 1456 1460 1462 1466 1471 1474 1478 1481 1481 1483 1486 1489 1491 1493 1494 1496
1490 1489 1478 1479 1482 1484 1485 1488 1485 1477 1470 1471 1469 1467 1460 1453 1447 1443 1441 1438 1436 1435 1435 1437 1438 1439 1440 1443 1448 1453 1458 1461 1465 1470 1474 1477 1480 1482 1484 1484 1487 1490 1492 1494
1490 1479 1475 1480 1479 1483 1482 1484 1480 1478 1470 1468 1467 1455 1455 1449 1445 1442 1441 1437 1434 1432 1428 1428 1428 1430 1435 1440 1444 1449 1454 1460 1464 1468 1473 1476 1477 1479 1479 1482 1484 1487 1490 1492
1486 1476 1477 1475 1478 1476 1481 1470 1471 1473 1477 1487 1472 1470 1459 1451 1443 1437 1433 1434 1432 1428 1425 1422 1422 1426 1431 1437 1441 1448 1455 1461 1464 1468 1469 1474 1476 1476 1480 1481 1483 1485 1487 1489
1481 1475 1474 1475 1474 1469 1475 1467 1468 1469 1476 1481 1479 1487 1455 1449 1450 1445 1440 1436 1432 1427 1423 1425 1430 1434 1436 1436 1440 1448 1456 1458 1460 1465 1468 1470 1478 1479 1479 1481 1481 1483 1485 1488
1476 1470 1471 1469 1466 1466 1463 1467 1471 1479 1483 1489 1474 1478 1463 1456 1453 1445 1440 1436 1432 1426 1425 1429 1431 1435 1438 1440 1447 1450 1454 1458 1459 1457 1465 1470 1473 1476 1478 1477 1481 1482 1484 1485
1479 1474 1467 1465 1467 1465 1465 1475 1492 1491 1489 1482 1465 1475 1457 1448 1447 1447 1442 1438 1435 1431 1429 1432 1433 1437 1442 1449 1454 1456 1458 1452 1460 1457 1461 1466 1475 1476 1478 1479 1477 1479 1479 1483
1484 1484 1466 1465 1468 1470 1469 1475 1492 1487 1489 1481 1465 1470 1457 1452 1450 1447 1443 1441 1440 1437 1436 1436 1438 1440 1443 1448 1454 1451 1454 1460 1459 1461 1460 1463 1472 1473 1476 1479 1476 1480 1477 1481
1482 1478 1464 1463 1464 1467 1470 1477 1471 1478 1479 1484 1470 1459 1453 1454 1452 1448 1445 1443 1441 1441 1443 1442 1443 1445 1447 1449 1449 1452 1450 1453 1454 1460 1460 1462 1467 1467 1470 1474 1478 1478 1478 1480
1480 1483 1466 1464 1464 1466 1467 1469 1481 1483 1484 1484 1469 1463 1460 1454 1455 1453 1450 1446 1442 1443 1442 1443 1445 1444 1443 1442 1443 1445 1442 1442 1452 1460 1459 1462 1463 1465 1464 1471 1473 1477 1475 1479
1477 1481 1475 1469 1468 1470 1471 1472 1474 1475 1478 1474 1470 1463 1453 1455 1454 1454 1453 1452 1450 1446 1443 1442 1439 1437 1436 1440 1441 1442 1443 1443 1446 1444 1450 1459 1462 1461 1462 1465 1469 1476 1475 1477
1482 1482 1483 1472 1465 1463 1465 1466 1469 1481 1470 1475 1473 1468 1449 1453 1453 1452 1450 1449 1448 1451 1445 1441 1436 1435 1436 1434 1437 1436 1437 1441 1442 1445 1443 1442 1449 1452 1456 1461 1467 1472 1473 1472
1483 1489 1491 1470 1469 1467 1467 1466 1468 1471 1472 1472 1484 1469 1450 1449 1449 1445 1442 1443 1443 1440 1440 1438 1437 1436 1432 1431 1432 1432 1432 1435 1439 1441 1443 1446 1447 1446 1450 1455 1464 1468 1470 1468
1481 1487 1490 1487 1478 1478 1474 1466 1467 1471 1475 1469 1467 1463 1452 1450 1446 1439 1436 1434 1436 1434 1436 1432 1430 1429 1428 1430 1429 1429 1426 1428 1432 1434 1438 1440 1443 1446 1443 1450 1459 1463 1468 1467
1479 1479 1482 1471 1470 1469 1465 1460 1466 1467 1460 1464 1455 1451 1443 1439 1436 1433 1432 1432 1430 1428 1428 1429 1427 1425 1422 1422 1422 1421 1420 1423 1426 1428 1431 1435 1438 1442 1443 1447 1451 1458 1460 1463
1475 1474 1476 1467 1468 1464 1460 1455 1461 1458 1455 1449 1446 1441 1434 1432 1430 1431 1431 1433 1431 1429 1427 1426 1423 1420 1417 1416 1415 1414 1414 1415 1418 1421 1424 1429 1431 1438 1440 1444 1448 1452 1454 1458
1474 1476 1479 1466 1464 1464 1461 1454 1450 1446 1441 1440 1440 1431 1428 1428 1426 1426 1429 1429 1428 1425 1424 1422 1419 1417 1412 1409 1408 1407 1407 1407 1408 1413 1418 1422 1427 1432 1435 1439 1443 1445 1450 1452
1467 1470 1473 1465 1464 1458 1440 1436 1436 1439 1432 1432 1430 1425 1423 1422 1423 1424 1425 1425 1423 1421 1419 1417 1415 1411 1408 1405 1404 1403 1401 1402 1405 1408 1412 1415 1420 1426 1429 1432 1436 1440 1445 1448
1455 1462 1464 1460 1453 1445 1436 1433 1432 1434 1427 1425 1422 1421 1422 1422 1423 1422 1421 1420 1419 1417 1415 1414 1410 1406 1403 1402 1401 1398 1398 1398 1400 1403 1406 1411 1417 1420 1424 1427 1429 1437 1441 1445
1448 1453 1459 1459 1452 1450 1430 1431 1431 1430 1431 1426 1424 1422 1420 1419 1425 1418 1417 1416 1415 1413 1411 1408 1405 1403 1400 1399 1398 1395 1395 1396 1398 1401 1404 1409 1413 1416 1419 1423 1428 1431 1436 1442
1451 1454 1450 1448 1450 1448 1440 1436 1432 1436 1427 1423 1423 1423 1423 1421 1416 1414 1414 1413 1412 1409 1406 1403 1399 1398 1399 1397 1397 1394 1395 1396 1398 1401 1404 1407 1410 1414 1417 1421 1425 1429 1432 1438
1447 1453 1451 1446 1448 1445 1439 1433 1437 1433 1426 1423 1421 1420 1418 1415 1412 1411 1410 1409 1408 1405 1402 1398 1395 1395 1395 1395 1395 1394 1394 1397 1398 1400 1402 1404 1408 1411 1414 1418 1422 1425 1431 1435
1451 1444 1449 1450 1444 1435 1433 1432 1431 1428 1426 1422 1418 1413 1412 1409 1408 1408 1406 1406 1405 1403 1400 1396 1396 1394 1392 1393 1394 1394 1394 1395 1397 1398 1400 1403 1406 1409 1412 1414 1418 1423 1427 1431
1443 1443 1446 1445 1433 1431 1429 1428 1424 1422 1421 1419 1415 1412 1409 1408 1406 1405 1403 1403 1402 1400 1399 1395 1393 1391 1389 1391 1392 1393 1393 1393 1395 1397 1399 1401 1404 1407 1409 1412 1416 1420 1423 1427
1442 1439 1438 1434 1429 1427 1423 1420 1421 1419 1416 1415 1411 1408 1405 1404 1401 1400 1400 1399 1398 1397 1396 1393 1391 1388 1388 1387 1390 1391 1391 1391 1392 1395 1397 1399 1402 1404 1406 1410 1413 1416 1419 1422
1437 1435 1437 1425 1424 1424 1419 1418 1416 1412 1409 1408 1405 1400 1398 1398 1396 1395 1395 1395 1394 1394 1392 1390 1389 1387 1386 1388 1389 1389 1389 1388 1389 1391 1394 1396 1398 1401 1404 1407 1410 1413 1416 1420